User: anonymous   Login
Location: Unspecified
(0.0000°N, 0.0000°E)
Time: 09:55:55
(UTC+00:00)
Language:

Tiangong 1 - Orbit

View from above orbital plane
View from above orbital plane
View from above satellite
View from above satellite

Ground track
Ground track

The orbit data is extracted from the following two-line orbital elements,

1 37820U 11053A   16178.13345135  .00009002  00000-0  98789-4 0  9994
2 37820  42.7615 193.7694 0012507 105.0178 324.6568 15.63384778271986
Epoch (UTC): 26 June 2016 03:12:10
Eccentricity: 0.0012507
inclination: 42.7615°
perigee height: 369 km
apogee height: 386 km
right ascension of ascending node: 193.7694°
argument of perigee: 105.0178°
revolutions per day: 15.63384778
mean anomaly at epoch: 324.6568°
orbit number at epoch: 27198

The dashed part of the orbit path shows where the satellite is in the earth's shadow,  

DLR